OV1-5 R/B, 2123

Orbit data source: Space-Track

OV1-5 R/B, 2123 is space debris in LEO originally from a launch on Wed, 30 Mar 1966 UTC launched from the Air Force Western Test Range (AFWTR). Debris objects in space refer to the collection of defunct objects orbiting the Earth. Examples of debris include non-operational satellites, rocket bodies, and fragments generated from explosions, collisions, or faulty payload assembly.

Loading next visibility...
Identifier
2123, 1966-025C
Orbit
LEO
Country
Flag of USUS
Related business
Manufacturer
ABL
Mission
Spacecraft
Bus & Motor
ALTAIR, Unknown motor
Mass
~125 kg wet, ~125 kg dry
Launch date (UTC)
1966-03-30 (60 years ago)
Launch vehicle
Unknown
Launch site
Air Force Western Test Range (AFWTR)
Object type
Payload
Rocket body
Debris
Shape & HBR
Unknown
Radar Cross Section
Medium (>0.1 m² and <1 m²)

Expand to show TLE details & history
Last TLE update: 14 hours ago

TLE from 14 hours ago
0 OV1-5 R/B
1 02123U 66025C   26037.35868270  .00000347  00000-0  10636-3 0  9997
2 02123 144.6439   9.1723 0046005  87.4026 273.1910 13.65886881986892
Epoch: 2026-02-06T08:36Z
TLE epoch observation values (Epoch: 2026-02-06T08:36:30.185Z)
Latitude
-0.00002°
Longitude
103.54886°
Altitude
1,011.656 km
Speed
7.349 km/s
True Right ascension
00h 36m 41s
True Declination
0° 00' 00"
Sunlit
Object was in daylight at epoch
Visualization orbit readout
Latitude
Unknown
Longitude
Unknown
Altitude
Unknown
Speed
Unknown
Apparent Right ascension
Unknown
Apparent Declination
Unknown
Sunlit
N/A
Visualization observer readout
Local Sidereal Time
01:04:01
Azimuth
Unknown
Elevation
Unknown
Doppler factor
Unknown
Orbital elements
Apogee altitude
1,051.368 km
Perigee altitude
983.323 km
Semi-major axis
7,395.482 km
Eccentricity
0.0046
Inclination
144.6439°
RAAN
9.1723°
Arg. of periapsis
87.4026°
True anomaly
272.66448°
Mean anomaly
273.191°
Eccentric anomaly
272.92775°
Mean motion
3.41266 °/min
Orbital period
105.49 mins
BSTAR
0.00010636
Loading maneuver chart data...
Computing Atmospheric mass density...
Loading historical data...
Loading historical data...
Loading historical data...
Loading historical data...
Loading historical data...
Loading historical data...
Loading historical data...

Documentation

Showing up to 5 results
|